Lexington Weather

Lexington, Massachusetts, USA

72°F
9/22/2021 2:23pm 
  • Lexington Conditions: Light rain, Mist, Overcast
  • Temperature: 71.8°F / 22.1°CColder 3.4°F than last hour.
  • Dew Point: 69.3°FIncreased 0.8°Fsince last hour.
  • Relative Humidity: 92%Increased 12.0% since last hour.
  • Wind: Wind from WSW WSW 2 mph, 10-min avg: 4 mph, gust: 13 mph
  • Barometer: 30.08 inFalling 0.02  inHg/hr Falling Slowly
  • Visibility: 2 miles
  • Rain Today: 0.00 in
  •   

Regional Weather Roundup
for Boston / Norton, MA

        
000
ASUS41 KBOX 190204
RWRBOX

REGIONAL WEATHER ROUNDUP
NATIONAL WEATHER SERVICE BOSTON/NORTON MA
1000 PM EDT SAT SEP 18 2021

NOTE:  "FAIR" INDICATES FEW OR NO CLOUDS BELOW 12,000 FEET WITH NO 
SIGNIFICANT WEATHER AND/OR OBSTRUCTIONS TO VISIBILITY.

MAZALL-190300-
EASTERN MASSACHUSETTS
  
CITY           SKY/WX    TMP DP  RH WIND       PRES   REMARKS
BOSTON         TSTM      71  65  81 CALM      29.98S                  
BEVERLY        PTCLDY    67  65  93 NE10      29.99R                  
LAWRENCE       LGT RAIN  70  69  97 E6        30.01S FOG              
BEDFORD        LGT RAIN  69  68  96 SW5       29.98F                  
BLUE HILL      NOT AVBL                                               
NORWOOD        LGT RAIN  68  66  93 N5        29.99R                  
MARSHFIELD     CLEAR     64  63  94 CALM      29.98S                  
PLYMOUTH       CLEAR     64  62  93 CALM      29.99S                  
TAUNTON        CLEAR     61  60  97 CALM      29.99S FOG              
NEW BEDFORD    CLEAR     64  63  96 CALM      29.98F                  
$$

MAZALL-190300-
CAPE COD AND THE ISLANDS
  
CITY           SKY/WX    TMP DP  RH WIND       PRES   REMARKS
FALMOUTH       FOG       63  63 100 CALM      29.99S VSB 0            
HYANNIS        FOG       65  65 100 CALM      29.97S VSB 1/4          
CHATHAM        FOG       65  65 100 CALM      29.99S VSB 1/2          
PROVINCETOWN   PTCLDY    61  61 100 CALM      29.99S FOG              
NANTUCKET      CLOUDY    69  66  90 N7        29.98S                  
MARTHAS VNYRD  CLEAR     62  62 100 CALM      29.99R FOG              
$$
 
MAZALL-190300-
CENTRAL AND WESTERN MASSACHUSETTS
  
CITY           SKY/WX    TMP DP  RH WIND       PRES   REMARKS
WORCESTER      CLOUDY    70  67  90 CALM      30.04R                  
FITCHBURG      MOCLDY    70  68  93 CALM      30.02R                  
ORANGE         MOCLDY    69  67  93 CALM      30.04R                  
SPRINGFIELD    MOCLDY    70  67  89 CALM      30.01R                  
WESTFIELD      CLEAR     72  66  81 N6        30.02R                  
NORTH ADAMS    MOCLDY    64  56  75 W8        30.08R                  
PITTSFIELD     CLEAR     64  61  90 VRB3      30.07R                  
$$
 
RIZALL-190300-
RHODE ISLAND
  
CITY           SKY/WX    TMP DP  RH WIND       PRES   REMARKS
PROVIDENCE     PTCLDY    68  67  96 CALM      30.00S                  
NEWPORT        PTCLDY    67  66  97 CALM      30.00S                  
BLOCK ISLAND   CLEAR     67  65  93 SW6         N/A                   
SMITHFIELD     MOCLDY    66  66 100 CALM      30.02R                  
WESTERLY       CLEAR     67  67 100 S3        30.00S                  
$$
 
CTZALL-190300-
CONNECTICUT
  
CITY           SKY/WX    TMP DP  RH WIND       PRES   REMARKS
BRADLEY INTL   MOCLDY    72  66  81 N3        30.01R                  
HARTFORD       PTCLDY    75  65  70 NW6       30.00R                  
BRIDGEPORT     PTCLDY    75  66  73 NW6       30.01R                  
DANBURY        CLEAR     75  65  70 N3        30.05R                  
GROTON         PTCLDY    70  68  93 CALM      29.99S                  
NEW HAVEN      PTCLDY    72  69  90 CALM      30.00S                  
CHESTER        FAIR      68  68 100 NW5       30.01S                  
MERIDEN        PTCLDY    68  66  93 CALM      30.01R                  
WILLIMANTIC    CLEAR     68  67  96 CALM      30.00F                  
OXFORD         CLEAR     67  64  90 N6        30.05R                  
$$

MEZ002-015-021-024-NHZ003-005-008-011-012-014-VTZ005-008-190300-
NORTHERN NEW ENGLAND
  
CITY           SKY/WX    TMP DP  RH WIND       PRES   REMARKS
PORTLAND ME    CLOUDY    66  66 100 N3        30.01S                  
BANGOR ME      CLOUDY    66  57  72 N10       30.03F                  
CONCORD NH     CLOUDY    69  62  78 N9        30.02R                  
MANCHESTER NH  MOCLDY    75  65  70 N13       29.99R                  
NASHUA NH      MOCLDY    72  71  97 NW7       30.01R                  
PORTSMOUTH NH  CLOUDY    67  65  93 CALM      30.02R                  
JAFFREY NH     PTCLDY    71  65  81 VRB7      30.06R                  
KEENE NH       CLOUDY    71  65  81 N12       30.05R                  
BURLINGTON VT  CLEAR     60  54  80 E3        30.12R                  
MT. WASHINGTON MOCLDY    45  34  65 NW31        N/A                   
$$

NYZ052-076-190300-
EASTERN NEW YORK
  
CITY           SKY/WX    TMP DP  RH WIND       PRES   REMARKS
ALBANY         CLOUDY    61  55  81 NW8       30.10R                  
NEW YORK CITY  PTCLDY    80  63  55 N13       30.01R                  
$$
 
ANZALL-190300-
MARINE OBSERVATIONS
  
STATION/POSITION TIME  TEMP    WIND        PRES    VSBY  WAVE
                       AIR SEA DIR/SP/G                  HT/PER
                 (UTC) (F)     (DEG/KT/KT) (MB)    (MI)  (FT/S)
BOSTON BUOY      0140      67  190/  4/  6 1015.5S
BUZZARDS BAY     0100          350/  1/  1 1016.6R
NANTUCKET SOUND  0140   69 73  360/  6/  8 1015.2R
MASS BAY-STELLWA 0104   66     200/  4/  4 1014.5F  1 7/8  4/11
ISLE OF SHOALS   0100   66      60/  9/ 11 1015.3R
S OF BLOCK IS    0126      71                N/A           5/ 9
$$

......................KEY.........................
  SKY/WX - SKY CONDITION/PRESENT WEATHER
  TMP    - TEMPERATURE IN FAHRENHEIT
  DWPT   - DEWPOINT IN FAHRENHEIT
  RH     - RELATIVE HUMIDITY IN PERCENT
  WIND   - DIRECTION AND SPEED IN MPH
  PRES   - MEAN SEA LEVEL PRESSURE IN INCHES OF HG
  WCI    - WIND CHILL INDEX
  VSB    - VISIBILITY IN MILES
  HX     - HEAT INDEX
  TC     - TEMPERATURE IN CELSIUS
  VRB    - VARIABLE WIND DIRECTION
  N/A    - NOT AVAILABLE
  
      

Other recent Regional Weather Roundups

Wed Sep 22, 2:04pm

Wed Sep 22, 1:04pm

Wed Sep 22, 12:05pm

Wed Sep 22, 11:04am

Wed Sep 22, 10:04am

Wed Sep 22, 9:04am

Wed Sep 22, 8:04am

Wed Sep 22, 7:04am

Wed Sep 22, 6:04am

Wed Sep 22, 5:04am

Wed Sep 22, 4:04am

Wed Sep 22, 3:04am

Wed Sep 22, 2:04am

Wed Sep 22, 1:04am

Wed Sep 22, 12:04am

Tue Sep 21, 11:04pm

Tue Sep 21, 10:04pm

Tue Sep 21, 9:04pm

Tue Sep 21, 8:04pm

Tue Sep 21, 7:04pm

Tue Sep 21, 6:04pm

Tue Sep 21, 5:04pm

Tue Sep 21, 4:04pm

Tue Sep 21, 3:04pm

Tue Sep 21, 2:04pm

Tue Sep 21, 1:04pm

Tue Sep 21, 12:04pm

Tue Sep 21, 11:04am

Tue Sep 21, 10:04am

Tue Sep 21, 9:04am

Tue Sep 21, 8:04am

Tue Sep 21, 7:04am

Tue Sep 21, 6:04am

Tue Sep 21, 5:04am

Tue Sep 21, 4:04am

Tue Sep 21, 3:04am

Tue Sep 21, 2:04am

Tue Sep 21, 1:04am

Tue Sep 21, 12:04am

Mon Sep 20, 11:04pm

Mon Sep 20, 10:04pm

Mon Sep 20, 9:04pm

Mon Sep 20, 8:04pm

Mon Sep 20, 7:04pm

Mon Sep 20, 6:04pm

Mon Sep 20, 5:04pm

Mon Sep 20, 4:04pm

Mon Sep 20, 3:04pm

Mon Sep 20, 2:04pm

Mon Sep 20, 1:04pm

Mon Sep 20, 12:04pm

Mon Sep 20, 11:04am

Mon Sep 20, 10:04am

Mon Sep 20, 9:04am

Mon Sep 20, 7:04am

Mon Sep 20, 6:04am

Mon Sep 20, 5:04am

Mon Sep 20, 4:04am

Mon Sep 20, 3:04am

Mon Sep 20, 2:04am

Mon Sep 20, 1:04am

Mon Sep 20, 12:04am

Sun Sep 19, 11:04pm

Sun Sep 19, 10:04pm

Sun Sep 19, 9:04pm

Sun Sep 19, 8:04pm

Sun Sep 19, 7:04pm

Sun Sep 19, 6:04pm

Sun Sep 19, 5:04pm

Sun Sep 19, 4:04pm

Sun Sep 19, 3:04pm

Sun Sep 19, 2:05pm

Sun Sep 19, 1:04pm

Sun Sep 19, 12:04pm

Sun Sep 19, 11:04am

Sun Sep 19, 10:05am

Sun Sep 19, 9:04am

Sun Sep 19, 8:04am

Sun Sep 19, 7:04am

Sun Sep 19, 6:04am

Sun Sep 19, 5:04am

Sun Sep 19, 4:04am

Sun Sep 19, 3:04am

Sun Sep 19, 2:04am

Sun Sep 19, 1:04am

Sun Sep 19, 12:04am

Sat Sep 18, 11:05pm

Sat Sep 18, 9:04pm

Sat Sep 18, 8:04pm

Sat Sep 18, 7:04pm

Sat Sep 18, 6:04pm

Sat Sep 18, 5:04pm

Sat Sep 18, 4:04pm

Sat Sep 18, 3:04pm

Sat Sep 18, 2:04pm

Sat Sep 18, 1:04pm

Sat Sep 18, 12:04pm

Sat Sep 18, 11:04am

Sat Sep 18, 10:04am

Sat Sep 18, 9:04am

Sat Sep 18, 8:04am

Sat Sep 18, 7:04am

Sat Sep 18, 6:04am

Sat Sep 18, 5:04am

Sat Sep 18, 4:04am

Sat Sep 18, 3:04am

Sat Sep 18, 2:04am

Sat Sep 18, 1:04am

Sat Sep 18, 12:04am

Fri Sep 17, 11:04pm

Fri Sep 17, 10:04pm

Fri Sep 17, 9:04pm

Fri Sep 17, 8:04pm

Fri Sep 17, 7:04pm

Fri Sep 17, 6:04pm

Fri Sep 17, 5:04pm

Fri Sep 17, 4:04pm

Fri Sep 17, 3:04pm

Fri Sep 17, 2:04pm

Fri Sep 17, 1:04pm

Fri Sep 17, 12:05pm

Fri Sep 17, 11:04am

Fri Sep 17, 10:04am

Fri Sep 17, 9:04am

Fri Sep 17, 8:04am

Fri Sep 17, 7:04am

Fri Sep 17, 6:04am

Fri Sep 17, 5:04am

Fri Sep 17, 4:04am

Fri Sep 17, 3:04am

Fri Sep 17, 2:04am

Fri Sep 17, 1:04am

Fri Sep 17, 12:04am

Thu Sep 16, 11:04pm

Thu Sep 16, 10:04pm

Thu Sep 16, 9:04pm

Thu Sep 16, 8:04pm

Thu Sep 16, 7:04pm

Thu Sep 16, 6:04pm

Thu Sep 16, 5:04pm

Thu Sep 16, 4:04pm

Thu Sep 16, 3:04pm

Thu Sep 16, 2:04pm

Thu Sep 16, 1:05pm

Thu Sep 16, 12:04pm

Thu Sep 16, 11:05am

Thu Sep 16, 10:05am

Thu Sep 16, 9:04am

Thu Sep 16, 8:04am

Thu Sep 16, 7:04am

Thu Sep 16, 6:04am

Thu Sep 16, 5:04am

Thu Sep 16, 4:04am

Thu Sep 16, 3:04am

Thu Sep 16, 2:04am

Thu Sep 16, 1:04am

Thu Sep 16, 12:04am

Wed Sep 15, 11:04pm

Wed Sep 15, 10:04pm

Wed Sep 15, 9:04pm

Wed Sep 15, 8:04pm

Wed Sep 15, 7:04pm

Wed Sep 15, 6:04pm

Wed Sep 15, 5:05pm

Wed Sep 15, 4:04pm

Wed Sep 15, 3:04pm

Meta data:

ID: ada8595d-a906-41ca-b549-621b32867891
Link: https://api.weather.gov/products/ada8595d-a906-41ca-b549-621b32867891